Weather in Chita

Russia / Zabaykalsky Krai     52°02′02″N   113°29′57″E
temp.,
°C
wind,
m/s
gust,
m/s
humid.,
%
clouds,
%
prec.,
mm/h
press.,
hPa
HPBL,
m
23 january, sat
sat2300:00−21se119472 0.0 102020
03:00−21ese129686 0.0 101922
06:00−21sse119694 0.0 101820
09:00−20s119396 0.0 101820
12:00−14wsw128070 0.0 1017117
15:00−10wnw127464 0.0 1016199
18:00−13n118578 0.0 101921
21:00−13wnw118786 0.0 102120
24 january, sun
sun2400:00−13wsw1189100 0.0 102320
03:00−13w1188100 0.0 102421
06:00−12w1288100 0.0 102520
09:00−13wnw1189100 0.0 102620
12:00−11n1180100 0.0 1027156
15:00−9n1180100 0.0 1025325
18:00−11nnw1197100 0.4 102721
21:00−12ene2695100 1.2 1028292
25 january, mon
mon2500:00−14ne2895100 1.0 1027515
03:00−15ene3995100 2.0 1026642
06:00−17ne4995100 1.4 1024638
09:00−18ne3896100 3.1 1022732
12:00−17ne4893100 1.6 1020847
15:00−17nne3690100 2.5 1018857
18:00−19n3795100 0.6 1018647
21:00−21nnw3897100 0.9 1019693
26 january, tue
tue2600:00−22nw3997100 0.2 1020585
03:00−22wnw3998100 0.4 1020706
06:00−21nw31090100 0.1 1021778
09:00−21w3893100 0.1 1021277
12:00−20w3784100 0.0 1021593
15:00−18wnw5881100 0.0 1021857
18:00−20wnw41084100 0.0 1022578
21:00−21wnw41185100 0.1 1024515
27 january, wed
wed2700:00−23wnw3888100 0.0 1026284
03:00−25w2689100 0.0 1027258
06:00−25w2590100 0.0 1029194
09:00−26w2393100 0.0 103194
12:00−24wnw3686100 0.0 1032569
15:00−22nw4683100 0.1 1032815
18:00−24wnw3886100 0.0 1033479
21:00−26w2491100 0.1 1035152